(87269) 2000 OO67 (2005)

Japanese version
Home page
Updated on August 22, 2010

---------------------------------------------------------------------

* Profile

Discovery Date July 29, 2000
Magnitude 22.1 mag
Discoverer M. W. Buie, S. D. Kern, R. L. Millis, L. H. Wasserman, J. L. Elliot, J. A. Pate, J. J. Qu (Cerro Tololo)

* Orbital Elements

The following orbital elements are taken from MPO157286

Epoch 2010 July 23.0 TT = JDT 2455400.5                 MPC
M   0.10866              (2000.0)            P               Q
n   0.00005679     Peri.  212.52430     +0.97592581     +0.05943332
a 670.3541890      Node   142.27066     -0.03355088     +0.99161296
e   0.9690068      Incl.   20.05537     -0.21550673     +0.11476683
P    17356         H    9.2           G   0.15           U   0
From 34 observations at 5 oppositions, 2000-2006, mean residual 0".35.

* Magnitudes Graph

        H = 9.2  G = 0.15

---------------------------------------------------------------------

The orbital elements are published at the MPC Ephemerides and Orbital Elements.
The magnitudes graphs are made with Comet for Windows.

---------------------------------------------------------------------

Copyright(C) Seiichi Yoshida (comet@aerith.net). All rights reserved.